When you browse on this site, cookies collect data to enhance your experience and personalize the content and advertising you see.
Visit our Privacy Policy to learn more. By continuing to use the site, you agree to this use of cookies and data.
  • In Romania
  • List of Countries
  • For 7 days
  • Water Temperature
  • Satellite Maps
  • Weather Map
  • Weather Widgets
  • user-avatar
    Login

    Hourly Weather Cumaná

    Today, 20 January, Sunday

    Time Temperature Precipitation Wind Pressure Humidity
    00:00 +24°C° 0 mm 6 mps 753 mmHg 87%
    01:00 +24°C° 0 mm 6 mps 753 mmHg 88%
    02:00 +24°C° 0 mm 6 mps 753 mmHg 88%
    03:00 +23°C° 0 mm 5 mps 753 mmHg 89%
    04:00 +23°C° 0 mm 5 mps 753 mmHg 89%
    05:00 +23°C° 0 mm 5 mps 753 mmHg 89%
    06:00 +25°C° 0 mm 5 mps 753 mmHg 84%
    07:00 +26°C° 0 mm 5 mps 754 mmHg 80%
    08:00 +27°C° 0 mm 5 mps 754 mmHg 75%
    09:00 +29°C° 0 mm 5 mps 754 mmHg 64%
    10:00 +33°C° 0 mm 5 mps 754 mmHg 52%
    11:00 +35°C° 0 mm 4 mps 754 mmHg 40%
    12:00 +36°C° 0 mm 5 mps 754 mmHg 41%
    13:00 +36°C° 0 mm 5 mps 753 mmHg 42%
    14:00 +36°C° 0 mm 6 mps 752 mmHg 44%
    15:00 +34°C° 0 mm 6 mps 752 mmHg 53%
    16:00 +32°C° 0 mm 6 mps 751 mmHg 63%
    17:00 +29°C° 0 mm 6 mps 751 mmHg 73%
    18:00 +29°C° 0 mm 6 mps 751 mmHg 77%
    19:00 +28°C° 0 mm 6 mps 752 mmHg 81%
    20:00 +27°C° 0 mm 6 mps 752 mmHg 85%
    21:00 +27°C° 0 mm 6 mps 752 mmHg 86%
    22:00 +26°C° 0 mm 6 mps 753 mmHg 87%
    23:00 +26°C° 0 mm 6 mps 753 mmHg 89%

    Tomorrow, 21 January, Monday

    Time Temperature Precipitation Wind Pressure Humidity
    00:00 +26°C° 0 mm 6 mps 753 mmHg 88%
    01:00 +26°C° 0 mm 6 mps 753 mmHg 88%
    02:00 +26°C° 0 mm 6 mps 753 mmHg 88%
    03:00 +26°C° 0 mm 5 mps 753 mmHg 88%
    04:00 +25°C° 0 mm 5 mps 753 mmHg 88%
    05:00 +25°C° 0 mm 5 mps 753 mmHg 88%
    06:00 +26°C° 0 mm 5 mps 753 mmHg 84%
    07:00 +27°C° 0 mm 5 mps 754 mmHg 80%
    08:00 +28°C° 0 mm 5 mps 754 mmHg 76%
    09:00 +29°C° 0 mm 5 mps 755 mmHg 69%
    10:00 +32°C° 0 mm 5 mps 755 mmHg 61%
    11:00 +34°C° 0 mm 5 mps 755 mmHg 54%
    12:00 +33°C° 0 mm 5 mps 754 mmHg 56%
    13:00 +33°C° 0 mm 5 mps 754 mmHg 59%
    14:00 +32°C° 0 mm 5 mps 753 mmHg 61%
    15:00 +32°C° 0 mm 5 mps 752 mmHg 65%
    16:00 +30°C° 0 mm 6 mps 752 mmHg 69%
    17:00 +30°C° 0 mm 6 mps 751 mmHg 73%
    18:00 +28°C° 0 mm 6 mps 752 mmHg 80%
    19:00 +27°C° 0 mm 6 mps 753 mmHg 87%
    20:00 +26°C° 0 mm 6 mps 753 mmHg 94%
    21:00 +26°C° 0 mm 6 mps 753 mmHg 94%
    22:00 +26°C° 0 mm 6 mps 754 mmHg 93%
    23:00 +26°C° 0 mm 6 mps 754 mmHg 93%

    Day after tomorrow, 22 January, Tuesday

    Time Temperature Precipitation Wind Pressure Humidity
    00:00 +26°C° 0 mm 6 mps 754 mmHg 92%
    01:00 +25°C° 0 mm 5 mps 754 mmHg 91%
    02:00 +25°C° 0 mm 5 mps 753 mmHg 90%
    03:00 +25°C° 0 mm 5 mps 753 mmHg 89%
    04:00 +25°C° 0 mm 5 mps 753 mmHg 89%
    05:00 +25°C° 0 mm 5 mps 753 mmHg 89%
    06:00 +26°C° 0 mm 5 mps 753 mmHg 85%
    07:00 +26°C° 0 mm 5 mps 754 mmHg 82%
    08:00 +27°C° 0 mm 6 mps 754 mmHg 79%
    09:00 +29°C° 0 mm 5 mps 755 mmHg 72%
    10:00 +30°C° 0 mm 5 mps 755 mmHg 65%
    11:00 +33°C° 0 mm 5 mps 755 mmHg 58%
    12:00 +32°C° 0 mm 5 mps 754 mmHg 65%
    13:00 +30°C° 0 mm 5 mps 754 mmHg 71%
    14:00 +28°C° 0 mm 6 mps 753 mmHg 77%
    15:00 +28°C° 0 mm 6 mps 752 mmHg 78%
    16:00 +28°C° 0 mm 6 mps 752 mmHg 79%
    17:00 +28°C° 0 mm 6 mps 752 mmHg 80%
    18:00 +27°C° 0 mm 6 mps 752 mmHg 84%
    19:00 +27°C° 0 mm 6 mps 753 mmHg 88%
    20:00 +26°C° 0 mm 6 mps 753 mmHg 92%
    21:00 +26°C° 0 mm 6 mps 754 mmHg 93%
    22:00 +24°C° 0 mm 6 mps 754 mmHg 93%
    23:00 +24°C° 0 mm 6 mps 754 mmHg 94%

    23 January, Wednesday

    Time Temperature Precipitation Wind Pressure Humidity
    00:00 +24°C° 0 mm 6 mps 754 mmHg 94%
    01:00 +24°C° 0 mm 6 mps 754 mmHg 93%
    02:00 +24°C° 0 mm 6 mps 753 mmHg 93%
    03:00 +23°C° 0 mm 6 mps 753 mmHg 92%
    04:00 +23°C° 0 mm 6 mps 753 mmHg 90%
    05:00 +23°C° 0 mm 5 mps 753 mmHg 89%
    06:00 +24°C° 0 mm 6 mps 754 mmHg 84%
    07:00 +26°C° 0 mm 6 mps 754 mmHg 79%
    08:00 +26°C° 0 mm 6 mps 755 mmHg 74%
    09:00 +28°C° 0 mm 6 mps 755 mmHg 65%
    10:00 +32°C° 0 mm 6 mps 755 mmHg 57%
    11:00 +34°C° 0 mm 6 mps 755 mmHg 48%
    12:00 +33°C° 0 mm 6 mps 754 mmHg 54%
    13:00 +32°C° 0 mm 6 mps 753 mmHg 60%
    14:00 +30°C° 0 mm 7 mps 753 mmHg 66%
    15:00 +30°C° 0 mm 7 mps 752 mmHg 67%
    16:00 +30°C° 0 mm 7 mps 752 mmHg 68%
    17:00 +29°C° 0 mm 7 mps 751 mmHg 69%
    18:00 +28°C° 0 mm 7 mps 752 mmHg 76%
    19:00 +27°C° 0 mm 7 mps 752 mmHg 82%
    20:00 +26°C° 0 mm 7 mps 753 mmHg 88%
    21:00 +26°C° 0 mm 7 mps 753 mmHg 89%
    22:00 +26°C° 0 mm 7 mps 753 mmHg 89%
    23:00 +24°C° 0 mm 7 mps 754 mmHg 89%

    24 January, Thursday

    Time Temperature Precipitation Wind Pressure Humidity
    00:00 +24°C° 0 mm 7 mps 753 mmHg 88%
    01:00 +24°C° 0 mm 7 mps 753 mmHg 87%
    02:00 +26°C° 0 mm 7 mps 753 mmHg 85%
    03:00 +24°C° 0 mm 6 mps 753 mmHg 85%
    04:00 +24°C° 0 mm 6 mps 753 mmHg 85%
    05:00 +24°C° 0 mm 6 mps 753 mmHg 84%
    06:00 +24°C° 0 mm 6 mps 753 mmHg 81%
    07:00 +26°C° 0 mm 6 mps 754 mmHg 77%
    08:00 +27°C° 0 mm 6 mps 754 mmHg 74%
    09:00 +29°C° 0 mm 6 mps 754 mmHg 66%
    10:00 +32°C° 0 mm 5 mps 754 mmHg 57%
    11:00 +34°C° 0 mm 5 mps 754 mmHg 49%
    12:00 +33°C° 0 mm 6 mps 754 mmHg 51%
    13:00 +33°C° 0 mm 6 mps 753 mmHg 53%
    14:00 +32°C° 0 mm 6 mps 752 mmHg 55%
    15:00 +30°C° 0 mm 6 mps 752 mmHg 61%
    16:00 +30°C° 0 mm 6 mps 751 mmHg 66%
    17:00 +29°C° 0 mm 6 mps 751 mmHg 71%
    18:00 +28°C° 0 mm 6 mps 752 mmHg 75%
    19:00 +27°C° 0 mm 6 mps 752 mmHg 80%
    20:00 +26°C° 0 mm 6 mps 753 mmHg 85%
    21:00 +24°C° 0 mm 6 mps 753 mmHg 85%
    22:00 +24°C° 0 mm 6 mps 753 mmHg 85%
    23:00 +24°C° 0 mm 6 mps 753 mmHg 85%

    25 January, Friday

    Time Temperature Precipitation Wind Pressure Humidity
    00:00 +24°C° 0 mm 6 mps 753 mmHg 85%
    01:00 +24°C° 0 mm 6 mps 753 mmHg 85%
    02:00 +24°C° 0 mm 6 mps 753 mmHg 85%
    03:00 +25°C° 0 mm 5 mps 753 mmHg 85%
    04:00 +23°C° 0 mm 5 mps 753 mmHg 85%
    05:00 +23°C° 0 mm 5 mps 753 mmHg 85%
    06:00 +25°C° 0 mm 5 mps 753 mmHg 81%
    07:00 +26°C° 0 mm 5 mps 754 mmHg 77%
    08:00 +27°C° 0 mm 5 mps 754 mmHg 73%
    09:00 +29°C° 0 mm 5 mps 754 mmHg 64%
    10:00 +32°C° 0 mm 5 mps 754 mmHg 54%
    11:00 +34°C° 0 mm 5 mps 754 mmHg 44%
    12:00 +34°C° 0 mm 5 mps 754 mmHg 47%
    13:00 +34°C° 0 mm 6 mps 753 mmHg 51%
    14:00 +33°C° 0 mm 7 mps 752 mmHg 54%
    15:00 +32°C° 0 mm 7 mps 751 mmHg 60%
    16:00 +30°C° 0 mm 7 mps 751 mmHg 66%
    17:00 +29°C° 0 mm 7 mps 751 mmHg 71%
    18:00 +28°C° 0 mm 7 mps 751 mmHg 76%
    19:00 +27°C° 0 mm 7 mps 752 mmHg 80%
    20:00 +26°C° 0 mm 7 mps 752 mmHg 85%
    21:00 +26°C° 0 mm 7 mps 752 mmHg 86%
    22:00 +26°C° 0 mm 7 mps 753 mmHg 87%
    23:00 +24°C° 0 mm 7 mps 753 mmHg 88%
    Show more